Overview Statistics Trail Chart Weather Telemetry Raw packets
 

This is the latest recevied weather packets stored in our database for station/object KE5OYL. If no packets are shown the sender has not sent any weather packets the latest 10 day(s).

<< 104 105 106 107 108 109 110 >>
Time Temp. Humidity Pressure Rain* Wind** Luminosity Snow
1787835733 27.78° C 72% 1015.6 hPa 0 mm - 69 W/m² -
1787835427 27.78° C 72% 1015.7 hPa 0 mm - 58 W/m² -
1787835123 27.78° C 72% 1015.6 hPa 0 mm - 47 W/m² -
1787834821 27.78° C 72% 1015.6 hPa 0 mm - 41 W/m² -
1787834516 27.78° C 73% 1015.5 hPa 0 mm - 39 W/m² -
1787834212 27.78° C 73% 1015.4 hPa 0 mm - 34 W/m² -
1787833908 27.78° C 73% 1015.3 hPa 0 mm - 28 W/m² -
1787833602 27.78° C 73% 1015.2 hPa 0 mm - 23 W/m² -
1787833298 27.78° C 73% 1015.3 hPa 0 mm - 19 W/m² -
1787832993 27.78° C 73% 1014.9 hPa 0 mm - 14 W/m² -
1787832690 27.78° C 73% 1015.1 hPa 0 mm - 10 W/m² -
1787832388 27.78° C 73% 1014.8 hPa 0 mm - 7 W/m² -
1787832082 27.78° C 74% 1015.1 hPa 0 mm - 4 W/m² -
1787831781 27.78° C 74% 1014.7 hPa 0 mm - 2 W/m² -
1787831481 27.78° C 74% 1014.5 hPa 0 mm - 1 W/m² -
1787831179 27.78° C 73% 1014.6 hPa 0 mm - 0 W/m² -
1787830876 27.78° C 73% 1014.6 hPa 0 mm - 0 W/m² -
1787830575 27.78° C 73% 1014.7 hPa 0 mm - 0 W/m² -
1787830275 28.33° C 73% 1014.6 hPa 0 mm - 0 W/m² -
1787829969 28.33° C 72% 1014.3 hPa 0 mm - 0 W/m² -
1787829669 28.33° C 72% 1014.5 hPa 0 mm - 0 W/m² -
1787829364 28.33° C 73% 1014.3 hPa 0 mm - 0 W/m² -
1787829060 28.33° C 72% 1014.3 hPa 0 mm - 0 W/m² -
1787828755 28.33° C 72% 1014.1 hPa 0 mm - 0 W/m² -
1787828452 28.33° C 72% 1014.1 hPa 0 mm - 0 W/m² -

* Rain latest hour (hover to see other rain measurements)
** Current wind speed in m/s (hover to see current wind gust speed)